Regional Weather Roundup
Issued by NWS

Home | Current Version | Previous Version | Text Only | Print | Product List | Glossary On
Versions: 1 2 3 4 5 6 7 8 9 10 11 12 13 14 15 16 17 18 19 20 21 22 23 24 25 26 27 28 29 30 31 32 33 34 35 36 37 38 39 40 41 42 43 44 45 46 47 48 49 50
000
ASUS43 KFSD 240210
RWRSD

WEATHER ROUNDUP FOR SOUTH DAKOTA
NATIONAL WEATHER SERVICE SIOUX FALLS SD
900 PM CDT WED AUG 23 2017

NOTE: "FAIR" INDICATES FEW OR NO CLOUDS BELOW 12,000 FEET WITH NO
SIGNIFICANT WEATHER AND/OR OBSTRUCTIONS TO VISIBILITY.


SDZ001>005-009-010-012>017-240300-
NORTHWEST AND NORTH CENTRAL SOUTH DAKOTA

CITY           SKY/WX    TMP DP  RH WIND       PRES   REMARKS
BUFFALO          N/A     77  51  40 E12       29.90R
FAITH            N/A     71  60  68 E9        29.96R
MOBRIDGE       CLEAR     73  62  68 E12       29.92R
$$

SDZ012>016-024>037-041>051-057-063-072>074-240300-
SOUTHWEST AND SOUTH CENTRAL SOUTH DAKOTA

CITY           SKY/WX    TMP DP  RH WIND       PRES   REMARKS
RAPID CTY ARPT PTCLDY    76  49  38 NE12      29.95R
PIERRE         CLEAR     74  62  66 E3        29.87S
CUSTER         PTCLDY    70  46  42 E14       30.12R
ELLSWORTH AFB  CLEAR     81  49  32 E10       29.95R
PHILIP         CLEAR     77  60  55 NE12      29.90R
PINE RIDGE     PTCLDY    76  59  55 E3        29.95R
SPEARFISH      FAIR      72  45  37 SE7       30.01S
WINNER         FAIR      79  63  57 S14       29.88S
$$

SDZ004>011-016>023-039-040-240300-
NORTHEAST SOUTH DAKOTA

CITY           SKY/WX    TMP DP  RH WIND       PRES   REMARKS
ABERDEEN       CLEAR     66  60  81 E7        29.95R
WATERTOWN      MOCLDY    69  59  70 SE6       29.98S
BROOKINGS      MOCLDY    69  60  73 SE10      30.00S
SISSETON         N/A     64  57  78 E5        29.97R
$$

SDZ017-020-022-023-036>040-048>070-240300-
SOUTHEAST SOUTH DAKOTA

CITY           SKY/WX    TMP DP  RH WIND       PRES   REMARKS
SIOUX FALLS    MOCLDY    70  62  76 SE9       30.00S
HURON          MOCLDY    71  62  73 SE10      29.93R
CHAMBERLAIN    CLEAR     75  66  72 E8        29.88S
MITCHELL       CLEAR     72  62  71 SE9       29.93S
YANKTON        FAIR      71  62  73 SE9       29.98R
$$

ABBREVIATIONS USED IN REMARKS
   TC - TEMPERATURE IN CELSIUS
  WCI - WIND CHILL INDEX
   HX - HEAT INDEX
  VSB - VISIBILITY





USA.gov is the U.S. government's official web portal to all federal, state and local government web resources and services.